Location: Domachevo
(51.7500°N, 23.6000°E)
Time: 20:00:17
(UTC+02:00)

Envisat - Visible Passes

Search period start: 17 January 2019 00:00
Search period end: 27 January 2019 00:00
Orbit: 764 x 766 km, 98.2° (Epoch: 17 January)

Date Brightness Start Highest point End Pass type
(mag) Time Alt. Az. Time Alt. Az. Time Alt. Az.
17 Jan 5.3 07:16:38 10° NNE 07:21:01 28° E 07:25:22 10° SSE visible
17 Jan 2.9 18:36:19 10° SSE 18:41:19 63° ENE 18:46:22 10° N visible
17 Jan 5.3 20:16:51 10° SW 20:20:47 22° W 20:24:44 10° NW visible
18 Jan 6.0 06:40:59 10° NE 06:43:49 15° E 06:46:37 10° ESE visible
18 Jan 3.6 18:00:14 10° SE 18:04:46 34° ENE 18:09:19 10° N visible
18 Jan 4.1 19:38:54 10° S 19:43:43 42° W 19:48:34 10° NNW visible
19 Jan 4.4 07:41:51 10° NNE 07:46:45 45° E 07:51:36 10° S visible
19 Jan 4.3 17:24:51 10° E 17:28:23 19° NE 17:31:57 10° N visible
19 Jan 3.0 19:01:45 10° SSE 19:06:50 83° WSW 19:11:58 10° NNW visible
19 Jan 5.9 20:44:06 10° WSW 20:46:41 14° W 20:49:16 10° NW visible
20 Jan 5.6 07:05:38 10° NE 07:09:42 23° E 07:13:44 10° SE visible
20 Jan 3.1 18:25:14 10° SE 18:30:09 52° ENE 18:35:06 10° N visible
20 Jan 5.0 20:05:11 10° SSW 20:09:28 27° W 20:13:46 10° NW visible
21 Jan 6.2 06:30:34 10° ENE 06:32:26 12° E 06:34:18 10° ESE visible
21 Jan 3.8 17:49:21 10° ESE 17:53:39 29° ENE 17:57:59 10° N visible
21 Jan 3.8 19:27:30 10° S 19:32:27 52° W 19:37:26 10° NNW visible
22 Jan 4.8 07:30:45 10° NNE 07:35:28 37° E 07:40:10 10° SSE visible
22 Jan 2.9 18:50:33 10° SSE 18:55:38 82° ENE 19:00:45 10° NNW visible
22 Jan 5.7 20:32:03 10° SW 20:35:19 17° W 20:38:36 10° NW visible
23 Jan 5.9 06:54:43 10° NE 06:58:22 19° E 07:01:59 10° SE visible
23 Jan 3.3 18:14:14 10° SE 18:19:00 43° ENE 18:23:48 10° N visible
23 Jan 4.7 19:53:37 10° SSW 19:58:09 32° W 20:02:44 10° NNW visible
24 Jan 4.0 17:38:32 10° ESE 17:42:34 24° ENE 17:46:36 10° N visible
24 Jan 3.4 19:16:10 10° S 19:21:12 63° WSW 19:26:17 10° NNW visible
24 Jan 6.2 21:00:52 10° W 21:01:17 10° W 21:01:40 10° WNW visible
25 Jan 5.2 07:19:41 10° NNE 07:24:11 31° E 07:28:39 10° SSE visible
25 Jan 2.9 18:39:24 10° SSE 18:44:26 68° ENE 18:49:31 10° N visible
25 Jan 5.4 20:20:12 10° SW 20:23:58 21° W 20:27:45 10° NW visible
26 Jan 6.0 06:43:55 10° NE 06:47:01 16° E 06:50:05 10° SE visible
26 Jan 3.5 18:03:15 10° SE 18:07:52 36° ENE 18:12:30 10° N visible
26 Jan 4.3 19:42:07 10° SSW 19:46:52 39° W 19:51:39 10° NNW visible
